Tracking 19832 objects as of 25-Aug-2019
HD Live streaming from Space Station
objects crossing your sky now

SAKURA 2A (CS-2A)

Track SAKURA 2A (CS-2A) now!
SAKURA 2A (CS-2A) is classified as:


NORAD ID: 13782
Int'l Code: 1983-006A
Perigee: 35,996.3 km
Apogee: 36,077.6 km
Inclination: 14.1 °
Period: 1,448.5 minutes
Semi major axis: 42407 km
RCS: 5.8102 m2 (large)
Launch date: February 4, 1983
Source: Japan (JPN)
Launch site: TANEGASHIMA SPACE CENTER (TNSTA)
aabbcc
Your satellite tracking list
Your tracking list is empty




NASA's NSSDC Master Catalog

Two Line Element Set (TLE):
1 13782U 83006A   19236.53729772 -.00000158  00000-0  00000+0 0  9995
2 13782  14.0994 340.7424 0009585 276.5041  84.3472  0.99410438103152
Source of the keplerian elements: AFSPC